Temp
24 23 23 23 21 18 21 24 24 25 25 27 26 25 25 25 25 22 23 24 23 23 23 22 22 22 23 23 23 23 22 22 21 21 21 20 20 20 20 19 19 19 19 19 18 18 18 17 18
24 24 23 23 19 20 21 22 26 26 27 27 26 26 25 24 24 24 24 24 23 23 23 22 22 22 22 23 23 22 22 22 22 21 21 20 20 20 20 19 19 19 19 18 18 18 18 18 18
24 24 23 17 15 20 21 25 25 27 26 27 26 25 25 24 24 24 24 24 24 23 23 22 22 22 22 22 23 22 22 22 22 21 21 20 20 20 19 19 19 19 18 18 18 18 18 18 17
24 23 22 18 22 21 23 24 24 27 27 27 26 24 24 24 26 25 24 24 23 23 23 22 22 22 22 22 22 23 22 22 22 22 21 21 20 20 19 19 19 18 18 18 18 18 17 17 17
24 23 17 19 21 22 23 25 25 25 26 26 26 24 24 24 25 25 24 24 23 23 23 22 22 22 22 22 22 23 23 22 22 22 22 21 21 20 20 19 19 19 18 18 18 17 17 17 17
23 21 18 19 21 21 22 26 25 25 25 25 25 24 23 24 24 24 24 24 23 23 23 22 22 22 22 22 22 22 22 22 22 22 22 22 21 21 20 20 19 19 19 18 18 18 17 17 17
20 16 19 20 20 22 25 26 26 25 24 25 25 22 21 22 24 24 24 24 24 23 23 22 22 22 22 22 22 22 22 22 22 22 22 21 21 21 21 20 20 21 20 19 18 18 18 17 17
23 17 20 20 20 22 24 26 28 25 25 26 25 22 21 22 23 24 24 23 23 23 23 23 22 22 22 22 21 21 21 21 21 21 21 21 21 20 20 20 20 20 20 20 19 19 18 18 17
23 17 16 21 23 23 26 22 28 26 26 26 25 25 26 23 23 23 23 22 22 22 23 23 23 22 22 22 22 22 22 21 21 21 21 21 21 21 21 20 20 20 20 20 19 19 19 18 18
20 15 18 19 23 22 24 24 26 28 26 26 25 26 24 23 23 23 23 23 23 24 23 23 23 22 22 22 22 22 22 22 22 22 21 21 21 21 20 20 20 19 19 20 19 19 19 18 18
20 18 19 22 24 24 24 25 27 25 25 26 26 24 23 23 23 24 24 24 25 24 24 24 23 23 22 22 23 22 22 22 22 22 21 21 21 21 20 20 20 19 19 19 19 19 19 18 18
22 22 23 25 26 24 23 26 27 27 27 29 27 26 24 23 23 24 24 24 24 24 24 24 23 22 23 23 23 23 23 22 22 22 21 21 21 20 20 20 20 19 19 19 19 19 19 19 18
21 22 24 26 26 25 24 25 25 28 27 27 26 24 23 23 24 24 24 24 24 24 25 23 24 23 23 23 23 22 22 22 23 22 22 21 21 21 20 20 20 20 19 19 19 19 19 19 19
23 23 23 25 26 25 24 25 26 28 27 26 26 25 23 23 24 23 23 24 24 25 26 25 23 23 22 23 23 23 23 22 22 22 22 21 21 21 21 20 20 20 19 19 19 19 19 19 18
23 22 20 23 25 24 26 24 24 27 26 25 25 25 24 23 23 24 25 24 25 26 26 25 24 23 22 22 22 23 23 22 21 21 21 21 21 21 20 20 20 20 19 19 19 19 19 19 18
21 19 19 21 24 25 26 22 23 27 25 24 25 25 23 22 23 24 24 24 25 26 26 25 24 23 23 22 22 22 22 21 21 21 21 20 20 20 20 20 20 20 19 19 19 19 19 19 19
16 19 20 20 23 23 24 23 24 26 25 25 22 24 23 22 22 23 23 24 25 26 25 25 24 23 22 22 22 22 22 22 21 21 21 20 20 20 20 20 20 19 19 19 19 19 19 19 19
19 20 20 19 21 21 21 21 21 25 22 22 24 25 24 21 22 24 24 24 25 25 26 25 25 23 22 22 22 22 21 21 20 20 20 20 20 19 19 19 19 19 19 19 19 19 19 19 18
20 19 18 20 21 21 21 21 21 20 18 17 19 24 25 22 22 23 25 25 24 24 25 25 24 24 22 22 22 22 21 21 21 21 20 20 20 20 20 19 19 19 19 18 18 17 17 18 18
18 18 18 19 20 20 20 22 20 17 16 15 15 19 19 19 20 23 23 24 23 24 24 24 24 22 22 23 23 22 21 21 21 20 20 20 19 19 19 20 19 19 18 18 19 18 17 17 17
19 19 19 19 21 21 22 21 20 17 15 14 16 18 18 17 16 16 16 17 19 19 20 20 20 20 21 23 22 21 21 21 20 20 20 20 20 20 20 19 19 18 18 19 18 18 18 18 17
18 20 20 20 20 18 21 18 18 13 14 12 10 12 16 15 16 15 15 15 16 16 18 18 19 20 21 22 21 20 20 20 20 20 20 20 20 20 20 20 19 20 20 20 20 18 18 19 19
19 20 20 21 19 19 18 16 17 13 12 11 10 10 13 14 15 15 15 15 15 15 16 17 16 17 20 20 19 19 20 19 20 19 19 20 19 19 19 20 20 20 20 20 20 20 20 19 21
21 21 18 15 15 16 17 16 14 12 12 11 10 9 11 13 14 13 14 14 14 14 14 14 14 14 14 14 15 15 15 15 15 16 16 16 16 17 18 18 19 19 19 20 20 20 20 20 20
18 16 15 16 15 15 15 16 13 12 11 10 9 9 11 12 12 13 14 13 13 13 13 13 13 13 13 13 13 13 13 13 14 14 14 14 15 15 16 16 17 18 18 19 19 19 19 19 19
19 16 15 16 15 15 14 16 13 12 12 10 9 9 10 11 11 11 11 12 12 12 12 12 13 13 13 13 13 12 12 12 12 12 12 12 13 14 14 15 16 17 17 17 17 16 17 18 17
19 16 15 12 12 12 13 12 12 11 11 11 10 10 10 11 12 12 12 12 11 11 11 11 11 12 12 12 13 13 12 12 11 11 11 11 11 12 13 14 15 16 16 16 16 16 16 15 15
18 15 15 11 14 11 12 13 12 10 10 9 9 9 11 11 13 13 14 13 11 11 12 11 10 10 12 12 12 13 13 12 11 11 11 11 10 10 12 13 14 14 14 14 14 15 15 14 15
15 13 10 11 10 12 11 11 11 11 10 9 10 10 10 11 11 10 10 10 10 9 9 9 10 10 11 12 12 12 12 11 11 11 11 10 10 10 10 11 12 13 13 13 14 14 14 14 13
15 13 11 9 12 8 9 9 11 10 10 10 10 10 10 11 11 10 10 11 11 10 11 11 10 10 10 10 11 11 11 11 11 11 11 10 10 10 10 10 10 12 12 12 12 12 13 14 13
Height
1526 1525 1526 1526 1535 1536 1541 1531 1516 1518 1516 1508 1512 1515 1514 1516 1517 1531 1515 1520 1525 1529 1532 1536 1540 1543 1544 1545 1546 1547 1547 1548 1549 1550 1550 1551 1551 1551 1552 1552 1551 1551 1551 1551 1552 1552 1553 1553 1553
1525 1525 1525 1525 1542 1550 1545 1528 1519 1514 1508 1506 1512 1513 1514 1517 1516 1515 1518 1521 1527 1530 1534 1537 1540 1544 1545 1546 1547 1548 1549 1550 1551 1551 1551 1553 1553 1553 1553 1554 1554 1553 1553 1554 1554 1555 1555 1555 1555
1525 1524 1525 1532 1551 1551 1544 1521 1515 1512 1511 1508 1513 1516 1514 1510 1513 1515 1518 1521 1526 1532 1535 1539 1541 1544 1546 1547 1548 1549 1550 1551 1552 1553 1553 1553 1555 1555 1555 1556 1557 1556 1556 1556 1557 1557 1557 1557 1558
1525 1525 1528 1539 1540 1530 1525 1516 1513 1514 1515 1513 1511 1513 1513 1513 1512 1517 1520 1525 1528 1532 1536 1540 1544 1547 1549 1549 1550 1550 1551 1552 1553 1554 1555 1555 1556 1556 1557 1557 1558 1559 1558 1558 1559 1559 1560 1560 1560
1524 1525 1537 1541 1536 1526 1517 1515 1507 1508 1510 1509 1509 1512 1512 1512 1514 1517 1521 1526 1531 1535 1538 1542 1545 1548 1550 1550 1550 1551 1552 1553 1554 1554 1555 1556 1556 1558 1558 1558 1558 1560 1561 1561 1561 1561 1562 1562 1561
1525 1527 1545 1547 1538 1523 1516 1512 1508 1507 1507 1509 1511 1512 1515 1516 1516 1518 1523 1525 1531 1536 1539 1541 1544 1547 1549 1551 1552 1552 1553 1554 1555 1555 1555 1556 1557 1558 1558 1559 1560 1560 1562 1562 1563 1563 1563 1564 1564
1525 1533 1544 1540 1538 1526 1515 1510 1507 1509 1510 1512 1512 1515 1516 1517 1518 1520 1523 1527 1530 1535 1539 1541 1544 1547 1549 1550 1551 1552 1553 1555 1556 1556 1556 1557 1558 1558 1559 1560 1561 1562 1562 1563 1563 1564 1565 1565 1565
1525 1529 1539 1539 1539 1529 1512 1514 1512 1511 1516 1514 1513 1514 1517 1517 1519 1521 1525 1529 1531 1535 1540 1543 1544 1546 1548 1549 1551 1553 1554 1555 1557 1557 1557 1558 1559 1560 1561 1561 1561 1562 1562 1563 1564 1564 1566 1566 1566
1526 1538 1551 1536 1531 1524 1514 1517 1516 1516 1515 1515 1515 1513 1512 1516 1520 1522 1525 1530 1535 1537 1540 1543 1544 1546 1547 1547 1549 1551 1552 1554 1556 1557 1559 1559 1559 1561 1562 1563 1563 1562 1563 1564 1564 1565 1566 1566 1567
1526 1543 1538 1527 1522 1520 1516 1517 1519 1517 1514 1513 1512 1511 1513 1514 1519 1523 1524 1527 1529 1534 1538 1541 1543 1545 1547 1548 1549 1549 1550 1552 1553 1556 1558 1559 1560 1561 1562 1563 1564 1564 1564 1564 1564 1565 1565 1566 1566
1525 1533 1525 1521 1521 1521 1517 1513 1515 1517 1516 1511 1510 1510 1512 1514 1519 1523 1523 1522 1520 1525 1529 1533 1537 1541 1545 1547 1547 1548 1549 1551 1553 1554 1556 1558 1559 1560 1561 1562 1563 1564 1564 1564 1564 1564 1565 1566 1566
1526 1520 1522 1518 1517 1518 1515 1513 1511 1510 1510 1509 1509 1510 1510 1515 1516 1517 1517 1518 1519 1522 1526 1527 1530 1535 1538 1542 1544 1546 1547 1549 1551 1553 1554 1556 1558 1560 1561 1561 1562 1562 1563 1563 1564 1565 1565 1566 1567
1524 1518 1518 1516 1514 1512 1512 1510 1511 1507 1506 1507 1510 1511 1510 1514 1515 1517 1516 1518 1520 1521 1520 1525 1524 1527 1532 1538 1542 1543 1546 1547 1549 1551 1553 1554 1556 1558 1560 1561 1561 1561 1562 1562 1564 1565 1565 1566 1566
1520 1517 1514 1511 1510 1510 1511 1509 1508 1505 1505 1506 1509 1508 1510 1510 1513 1515 1517 1517 1518 1520 1519 1521 1524 1527 1531 1535 1540 1542 1543 1546 1546 1549 1551 1553 1554 1556 1557 1559 1560 1560 1561 1562 1562 1564 1565 1565 1565
1518 1518 1511 1509 1509 1509 1507 1508 1506 1503 1503 1505 1506 1507 1509 1510 1511 1512 1511 1513 1515 1518 1519 1518 1523 1526 1529 1532 1537 1540 1541 1543 1544 1545 1548 1550 1551 1554 1555 1556 1557 1559 1561 1560 1560 1562 1563 1563 1563
1520 1521 1530 1509 1506 1506 1509 1524 1502 1504 1504 1501 1501 1503 1507 1507 1509 1512 1511 1513 1516 1516 1516 1518 1521 1523 1525 1529 1534 1538 1539 1541 1542 1543 1546 1548 1550 1552 1553 1553 1555 1557 1559 1558 1559 1560 1560 1559 1559
1532 1536 1529 1519 1508 1509 1512 1519 1504 1503 1501 1497 1498 1498 1500 1503 1506 1507 1508 1510 1510 1512 1513 1514 1518 1519 1522 1526 1531 1535 1537 1538 1540 1542 1543 1546 1548 1550 1551 1552 1553 1556 1556 1556 1558 1558 1558 1557 1558
1540 1536 1532 1532 1512 1510 1515 1515 1506 1501 1501 1499 1494 1491 1495 1498 1494 1499 1502 1506 1508 1509 1510 1512 1514 1516 1521 1524 1528 1530 1532 1534 1537 1540 1540 1543 1545 1546 1547 1547 1551 1553 1555 1555 1556 1556 1556 1555 1557
1528 1533 1536 1523 1510 1515 1514 1514 1507 1505 1496 1497 1492 1488 1489 1491 1495 1496 1497 1501 1505 1506 1507 1510 1510 1511 1515 1518 1522 1524 1525 1530 1533 1535 1537 1538 1540 1541 1542 1545 1546 1551 1554 1554 1554 1555 1555 1556 1557
1528 1532 1531 1522 1507 1512 1510 1510 1511 1507 1511 1507 1499 1492 1495 1496 1495 1492 1495 1497 1501 1502 1503 1505 1506 1510 1513 1517 1518 1520 1522 1527 1531 1532 1533 1534 1536 1537 1539 1541 1543 1548 1548 1547 1549 1550 1550 1552 1554
1523 1529 1526 1525 1508 1504 1506 1513 1510 1512 1510 1502 1501 1499 1501 1503 1503 1504 1506 1506 1507 1509 1508 1505 1508 1509 1511 1514 1517 1517 1518 1524 1529 1530 1528 1530 1531 1532 1535 1537 1537 1539 1541 1541 1545 1548 1548 1548 1549
1528 1510 1513 1515 1519 1532 1505 1536 1517 1523 1519 1512 1510 1506 1504 1504 1505 1509 1510 1512 1515 1516 1513 1513 1511 1509 1510 1511 1516 1518 1517 1522 1526 1527 1524 1526 1525 1528 1530 1532 1532 1535 1535 1536 1536 1548 1546 1540 1539
1516 1504 1509 1508 1515 1518 1520 1533 1523 1523 1523 1524 1519 1514 1507 1506 1507 1511 1516 1519 1519 1518 1516 1515 1512 1509 1506 1504 1511 1512 1515 1518 1522 1522 1519 1520 1519 1524 1524 1526 1528 1528 1529 1531 1530 1531 1530 1531 1528
1501 1504 1511 1518 1524 1538 1527 1531 1537 1534 1531 1529 1526 1519 1512 1509 1510 1513 1515 1518 1522 1526 1522 1521 1520 1517 1515 1513 1511 1511 1514 1516 1517 1516 1515 1517 1519 1519 1520 1520 1521 1522 1524 1525 1525 1524 1525 1525 1523
1503 1518 1541 1542 1543 1545 1527 1530 1535 1531 1532 1531 1529 1523 1516 1515 1515 1513 1515 1520 1527 1528 1528 1527 1529 1529 1523 1515 1516 1517 1519 1519 1515 1516 1517 1516 1517 1517 1517 1516 1516 1516 1516 1517 1518 1519 1520 1519 1519
1505 1514 1539 1544 1551 1543 1531 1532 1533 1531 1532 1533 1531 1527 1521 1518 1517 1516 1519 1519 1525 1530 1528 1526 1535 1540 1537 1523 1517 1522 1521 1522 1522 1519 1517 1517 1517 1517 1516 1514 1514 1512 1511 1510 1511 1512 1512 1513 1513
1506 1519 1515 1537 1543 1550 1540 1537 1534 1532 1531 1531 1530 1527 1524 1522 1521 1519 1518 1522 1526 1532 1534 1531 1536 1542 1545 1532 1523 1515 1519 1524 1523 1520 1516 1515 1517 1517 1517 1515 1513 1511 1508 1506 1505 1504 1504 1505 1505
1500 1509 1525 1536 1542 1560 1545 1535 1531 1532 1530 1529 1527 1524 1523 1524 1523 1523 1521 1520 1520 1529 1532 1530 1533 1543 1543 1532 1528 1516 1515 1521 1521 1518 1515 1515 1514 1514 1514 1515 1513 1509 1507 1505 1503 1500 1499 1499 1499
1511 1517 1526 1531 1539 1542 1547 1540 1516 1518 1520 1521 1520 1520 1520 1520 1520 1520 1520 1520 1523 1525 1522 1528 1532 1530 1533 1530 1527 1516 1516 1520 1521 1518 1514 1514 1512 1513 1513 1512 1512 1510 1506 1503 1500 1498 1496 1495 1495
1499 1509 1516 1538 1536 1543 1544 1532 1508 1510 1512 1514 1515 1517 1519 1519 1519 1520 1520 1522 1523 1523 1524 1527 1530 1530 1527 1526 1523 1515 1517 1520 1519 1515 1513 1512 1512 1511 1511 1511 1509 1508 1505 1501 1498 1495 1491 1489 1489
Wind_Speed
6 7 8 2 3 5 3 3 3 3 3 12 11 5 8 2 3 4 12 31 30 31 29 26 23 20 19 18 17 17 17 17 17 17 16 15 14 15 15 15 17 18 19 19 19 19 18 18 18
4 5 3 2 4 4 4 4 2 3 7 11 15 11 4 1 1 5 29 28 30 30 29 27 24 21 19 18 17 16 16 16 16 15 15 14 13 13 14 14 15 16 17 17 17 16 16 16 17
3 5 2 4 3 3 3 3 7 5 16 17 5 2 4 8 4 25 26 26 32 30 28 26 24 21 18 17 16 16 15 15 14 14 14 13 12 12 12 12 13 13 14 14 14 13 13 13 14
5 1 4 4 3 5 5 6 15 6 13 7 11 4 4 2 11 21 24 24 32 31 29 26 23 20 18 16 16 15 14 14 13 12 12 12 11 10 10 11 11 11 11 11 11 11 10 10 10
4 2 4 2 4 5 5 10 21 5 4 7 7 5 5 15 11 19 24 27 30 30 29 26 23 20 18 16 16 14 14 13 12 12 11 11 10 9 9 9 9 9 9 9 9 8 8 8 8
2 3 4 2 4 6 8 17 9 4 7 8 6 7 2 14 12 19 21 23 28 28 28 27 25 22 19 17 15 15 14 13 12 12 11 10 10 9 8 7 7 7 6 6 6 7 6 6 5
4 4 3 1 6 6 4 30 13 3 6 2 11 4 4 17 19 21 21 22 26 27 27 28 25 22 19 18 17 16 14 13 12 12 11 10 9 8 7 6 5 5 5 5 5 5 5 5 6
2 5 3 2 3 6 7 20 27 3 1 9 6 3 6 21 25 25 22 23 26 26 25 26 25 24 22 20 18 16 14 14 12 11 11 10 8 7 6 5 4 3 3 3 3 1 2 4 5
1 4 2 3 2 7 17 10 23 3 12 4 4 4 5 25 30 28 24 23 24 24 24 25 25 24 23 22 20 19 17 15 14 13 11 10 9 7 6 4 2 2 2 3 3 2 2 3 5
4 4 7 7 4 6 19 12 16 4 3 6 3 5 21 32 32 27 24 23 26 23 23 23 25 25 24 23 22 21 19 18 16 14 13 12 9 8 7 6 4 3 1 1 2 2 3 4 4
3 4 5 10 20 17 15 22 18 9 2 9 12 22 33 35 33 28 27 24 25 24 23 24 27 26 25 24 23 22 21 20 18 16 15 13 12 11 10 9 7 5 3 3 5 4 2 3 1
1 9 9 16 24 11 7 16 10 3 4 1 15 30 35 37 36 35 32 29 29 26 20 20 25 29 27 27 26 24 24 21 19 17 16 16 14 14 11 11 10 6 3 2 1 3 4 3 4
4 7 11 18 22 18 12 15 9 8 5 5 19 35 35 38 35 35 33 27 29 25 21 24 22 28 29 29 27 26 23 20 18 18 18 18 17 16 15 14 11 9 8 5 4 4 4 6 5
4 12 16 14 17 7 4 5 4 8 6 14 26 34 38 38 39 36 34 31 30 20 22 17 23 24 29 28 27 25 23 20 20 19 19 19 18 18 18 16 16 11 9 7 7 8 9 10 11
7 6 9 3 3 3 4 8 6 16 11 17 29 33 35 37 37 40 38 37 32 22 24 28 28 23 28 29 29 25 22 19 16 20 18 19 19 17 19 19 15 12 10 10 10 10 12 11 12
5 4 5 5 10 7 8 8 11 16 11 23 30 32 32 31 35 34 40 41 34 25 27 29 30 27 25 25 25 25 22 20 17 16 19 16 16 17 15 15 15 10 13 14 13 14 15 15 15
6 2 5 11 4 2 3 6 11 19 7 14 28 34 32 30 32 32 33 37 37 29 27 30 29 31 29 25 21 22 22 23 20 17 18 18 20 19 18 17 15 14 17 18 18 17 17 17 14
3 4 4 6 7 8 4 6 7 20 21 19 18 28 32 30 38 32 32 33 33 33 27 27 27 29 34 30 26 23 25 25 25 24 23 22 23 25 24 20 21 18 20 19 19 20 19 17 15
3 3 5 12 17 4 7 4 8 16 35 30 26 14 21 28 34 30 29 35 36 38 32 31 30 31 36 36 28 24 25 28 26 25 22 20 20 20 19 19 20 21 23 21 19 20 20 18 18
5 5 11 8 12 5 8 2 8 16 14 18 26 17 9 10 25 32 33 35 40 40 37 36 34 34 36 33 30 27 26 26 26 25 23 23 24 23 24 24 22 19 22 25 21 17 16 16 17
6 4 6 8 10 4 3 3 4 6 22 35 30 16 12 15 8 6 14 25 34 36 36 35 33 38 37 37 36 33 29 28 30 29 30 28 31 32 30 26 25 22 22 22 14 14 13 15 17
6 9 10 7 1 4 3 5 3 6 14 23 29 28 25 24 14 12 6 8 9 12 21 26 26 30 31 35 34 36 30 19 25 25 25 23 21 19 22 24 27 26 22 21 16 22 13 19 22
9 8 6 5 4 2 7 3 3 4 8 11 19 22 29 26 24 21 19 17 11 1 5 10 10 16 28 29 27 28 25 21 25 20 26 24 21 21 27 28 25 22 19 22 18 20 25 29 23
5 2 4 4 3 1 4 2 3 3 3 2 7 17 25 27 24 23 23 21 21 17 14 15 11 16 11 4 3 2 3 1 4 5 9 7 8 9 11 14 14 14 16 17 21 19 21 24 30
5 6 4 4 3 5 4 3 3 4 1 2 6 13 22 23 25 24 22 21 20 22 24 23 22 22 19 20 21 19 17 15 11 11 11 9 8 8 7 5 4 7 11 16 20 19 23 25 36
2 7 5 4 3 3 5 4 2 2 5 4 11 16 23 23 24 27 26 24 22 22 24 26 20 20 18 20 21 20 20 20 18 16 15 14 12 10 7 6 5 5 6 9 15 26 30 36 35
4 2 3 6 2 2 3 2 4 2 3 6 6 14 20 24 24 26 28 27 27 23 20 23 23 16 14 17 17 20 20 19 18 17 16 15 13 11 8 6 6 8 9 10 13 18 24 34 38
3 4 3 3 2 3 3 3 5 7 7 6 8 12 15 15 16 17 15 8 5 11 7 7 10 8 14 19 20 20 20 18 17 18 18 16 15 16 15 9 8 8 9 11 14 17 20 24 28
1 2 6 4 4 5 3 5 5 10 10 10 14 16 16 16 17 16 11 10 12 4 6 9 3 1 13 19 21 23 22 17 17 17 18 16 15 15 16 17 11 13 11 12 13 15 17 22 24
3 6 6 5 5 2 2 6 4 9 14 16 17 15 15 17 18 12 9 7 9 8 2 9 6 3 7 14 19 22 22 19 22 23 23 20 15 11 12 13 16 13 15 14 14 12 12 16 22
Wind_Direction
4 326 323 348 39 62 298 238 242 196 245 220 168 176 175 103 185 217 158 165 169 170 164 162 164 161 154 148 147 145 143 143 142 141 140 137 128 118 114 109 101 95 94 98 100 99 97 91 86
356 328 342 112 86 46 304 278 44 255 221 188 182 125 107 175 253 167 153 160 171 172 168 165 166 165 159 154 151 148 144 144 143 140 137 134 128 121 115 111 106 102 99 102 103 100 95 88 84
342 341 1 87 98 167 213 250 287 334 150 137 133 161 163 150 168 157 161 164 171 175 173 170 169 168 165 159 156 153 150 147 144 142 139 134 131 127 122 118 113 108 105 104 104 102 100 94 88
347 7 64 85 227 252 206 244 242 131 242 230 142 117 105 176 124 161 163 169 173 175 176 173 171 172 171 166 162 159 156 152 148 144 140 137 137 136 133 127 121 116 111 107 107 108 106 98 86
-0 48 51 43 273 276 266 290 317 184 197 164 172 152 134 154 141 162 165 171 177 176 177 174 175 177 178 175 170 168 164 158 156 151 147 145 145 144 143 139 132 127 122 117 115 114 116 110 95
59 73 53 305 316 272 289 341 4 187 155 158 155 115 124 179 162 153 162 165 175 181 180 178 179 181 183 182 180 176 173 170 165 160 157 157 155 152 149 147 146 134 132 132 130 131 131 140 125
109 82 169 280 295 299 276 348 12 195 148 154 135 115 140 166 169 155 157 165 177 185 185 184 184 185 188 190 190 186 183 180 177 173 168 170 167 162 159 150 145 132 130 148 147 151 149 157 167
56 90 100 326 281 283 317 354 4 183 63 161 185 182 168 174 169 161 165 174 181 184 189 190 189 191 194 195 196 196 193 191 190 186 184 183 179 178 176 168 148 114 96 97 105 126 179 189 189
148 52 116 224 273 270 314 22 346 76 145 219 245 281 256 166 169 164 165 174 182 183 189 197 200 201 201 200 199 199 200 200 200 199 198 198 192 189 188 185 160 108 74 56 33 18 323 250 223
108 113 207 212 227 271 304 320 329 322 158 245 291 259 166 169 171 168 163 165 175 185 193 203 210 211 210 208 208 206 206 206 206 204 207 208 203 201 198 196 188 186 179 109 44 15 352 309 262
161 197 179 254 273 290 290 305 323 161 244 221 198 156 168 177 176 177 176 179 177 180 190 203 213 214 218 219 215 214 214 213 213 210 213 213 212 215 211 191 183 158 128 106 77 78 78 12 351
264 254 246 288 298 277 251 297 287 217 200 258 196 175 176 183 185 186 189 189 191 189 198 206 210 212 218 223 222 219 219 218 219 219 219 221 221 222 216 206 199 190 176 176 102 62 36 356 328
205 283 300 304 301 294 259 251 248 286 252 174 188 175 181 187 194 197 200 194 202 200 212 217 204 210 215 222 224 224 224 224 228 228 228 230 232 235 230 229 225 221 226 235 263 296 307 322 326
276 293 293 305 301 278 190 258 227 306 251 193 190 193 183 187 196 200 204 199 204 206 229 214 219 218 218 224 227 229 225 228 231 233 234 240 241 243 245 244 240 236 236 258 275 276 279 274 286
293 334 328 290 294 287 295 340 303 309 261 215 199 204 197 200 192 205 211 208 202 211 226 226 218 215 220 222 225 229 223 222 235 234 234 241 243 245 250 250 251 257 264 260 272 273 271 275 279
4 48 357 290 332 360 34 285 293 335 283 239 215 212 203 197 202 210 222 214 210 218 232 229 217 213 213 217 221 225 223 232 241 238 227 234 239 242 252 260 266 276 275 272 266 271 267 269 280
360 267 316 323 330 333 92 277 294 331 346 291 236 223 218 215 216 225 223 213 217 224 218 218 218 216 216 215 220 230 237 237 241 240 236 241 246 251 255 263 272 272 270 277 273 268 263 269 276
270 342 308 276 294 10 299 256 291 334 13 351 295 239 237 219 220 219 216 218 214 218 213 215 220 221 222 220 223 229 234 239 244 246 249 255 255 254 256 264 266 269 259 275 280 279 278 284 284
255 244 255 278 286 198 252 287 293 27 24 7 349 285 252 231 233 222 220 214 212 212 210 209 221 220 223 223 227 232 239 244 247 253 259 266 268 272 272 277 282 270 270 284 285 288 287 294 294
226 271 281 291 267 155 269 316 65 46 22 7 11 323 319 250 229 223 218 208 212 213 215 208 220 224 223 224 222 228 237 250 261 262 260 264 267 271 276 278 286 274 270 269 283 286 295 283 295
251 204 255 231 296 275 281 358 65 40 18 16 28 41 36 31 31 252 227 226 221 226 228 226 232 228 224 225 230 232 236 246 254 257 253 254 257 260 264 269 269 259 257 254 276 308 304 289 282
268 249 238 258 347 263 79 278 19 349 23 25 17 37 64 59 64 69 103 193 230 245 249 252 251 240 233 226 235 240 241 254 261 257 258 254 254 260 265 273 273 270 264 257 263 303 292 279 286
236 253 235 231 221 55 335 84 247 359 12 17 14 31 71 80 85 84 77 66 49 186 261 255 266 252 241 240 232 240 244 241 249 248 254 262 263 249 253 264 266 275 275 263 263 280 246 251 270
260 254 62 53 86 31 278 182 309 5 314 6 41 50 77 92 98 97 93 84 72 63 56 51 39 68 75 100 158 172 218 100 265 282 287 326 323 313 295 287 293 282 276 269 270 272 263 250 248
84 55 341 335 359 236 301 338 224 160 140 136 101 79 88 92 97 107 105 90 87 78 69 64 59 59 66 75 67 65 65 68 68 56 41 33 37 35 28 11 326 277 260 252 257 243 262 254 250
155 144 153 240 213 266 308 269 256 191 130 118 92 89 96 98 97 96 95 94 86 74 71 66 48 30 37 54 60 51 43 39 41 40 36 29 23 23 21 9 341 306 276 256 235 241 248 242 258
187 132 168 109 60 82 246 104 306 145 201 174 146 116 107 111 114 108 103 94 88 81 65 48 28 26 25 39 44 45 31 20 23 25 26 26 19 12 13 342 320 310 297 264 250 252 249 245 257
134 144 80 14 223 252 273 266 228 203 215 200 183 166 155 143 143 142 138 167 163 305 287 308 276 348 5 18 12 21 13 358 1 7 14 14 9 358 351 346 321 302 297 287 283 269 261 261 253
118 92 54 110 142 199 198 247 211 181 187 198 206 198 190 191 197 197 205 248 268 207 123 112 96 101 341 345 354 4 2 355 350 352 355 1 4 351 345 339 328 309 302 294 284 283 277 271 264
163 165 142 133 219 227 164 258 218 191 191 196 202 205 212 227 230 228 213 211 197 165 280 271 184 41 2 2 350 350 346 336 335 342 347 342 333 343 345 334 324 307 305 300 300 304 307 280 272